Voltar ao catálogo

COSMOS 2251 DEB

AtivoLEO
NORAD 34059·DEBRIS·🇷🇺 Russia

Lançado Jun 16, 1993 de Plesetsk Cosmodrome

Loading…

Próximas Passagens (próximas 24 horas)

TLE

AtualizadoSource: Space-Track

Época: Sep 14, 2026, 08:05 UTC

1 34059U 93036JW  26257.33704772  .00001613  00000-0  38637-3 0  9998
2 34059  74.0387  25.6904 0017732  32.6430 355.9840 14.54271788924642

Acompanhe COSMOS 2251 DEB em tempo real com AllMySat

Download on the App Store